Nebraska City, NE

12:21 AM CDT on June 28, 2017 (GMT -0500)
Nebraska City Municipal

Weather History for KAFK - June, 2013

Change the Weather History Date:

Friday, June 21, 2013

  Actual Average (KSDA) Record (KSDA)
Temperature  
Mean Temperature 87 °F -  
Max Temperature 97 °F 86 °F 101 °F (1988)
Min Temperature 77 °F 62 °F 45 °F (1992)
Cooling Degree Days 22    
Growing Degree Days 37 (Base 50)    
Moisture  
Dew Point 69 °F    
Average Humidity 61    
Maximum Humidity 83    
Minimum Humidity 37    
Precipitation  
Precipitation 0.00 in - - ()
Sea Level Pressure  
Sea Level Pressure 29.87 in    
Wind  
Wind Speed 18 mph (South)    
Max Wind Speed 24 mph    
Max Gust Speed 32 mph    
Visibility 10 miles    
Events Thunderstorm    
Averages and records for this station are not official NWS values.
T = Trace of Precipitation, MM = Missing Value Source: NWS Daily Summary

Daily Weather History Graph

Daily Weather History Graph

Search for Another Location

Airport or City:

Trip Planner

Search our weather history database for the weather conditions in past years. The results will help you decide how hot, cold, wet, or windy it might be!

Date:

Astronomy

Jun. 21, 2013 Rise Set
Actual Time 5:52 AM CDT 8:57 PM CDT
Civil Twilight 5:19 AM CDT 9:31 PM CDT
Nautical Twilight 4:37 AM CDT 10:13 PM CDT
Astronomical Twilight 3:46 AM CDT 11:03 PM CDT
Moon 7:09 PM CDT (6/21) 4:09 AM CDT (6/21)
Length of Visible Light 16h 11m
Length of Day
15h 04m
Waxing Gibbous, 95% of the Moon is Illuminated
Jun 21
Waxing Gibbous
Jun 23
Full
Jun 29
Last Quarter
Jul 8
New
Jul 15
First Quarter

Hourly Weather History & Observations

Time (CDT) Temp. Heat Index Dew Point Humidity Pressure Visibility Wind Dir Wind Speed Gust Speed Precip Events Conditions
12:15 AM 81.7 °F 85.8 °F 71.1 °F 70% 29.91 in 10.0 mi South 19.6 mph 25.3 mph N/A   Overcast
12:35 AM 80.8 °F 84.6 °F 71.1 °F 72% 29.91 in 10.0 mi South 16.1 mph 26.5 mph N/A   Scattered Clouds
12:55 AM 80.2 °F 84.0 °F 71.6 °F 75% 29.91 in 10.0 mi South 16.1 mph 21.9 mph N/A   Clear
1:15 AM 80.1 °F 83.8 °F 71.8 °F 76% 29.91 in 10.0 mi South 17.3 mph 21.9 mph N/A   Clear
1:35 AM 79.7 °F - 72.0 °F 77% 29.91 in 10.0 mi South 17.3 mph 23.0 mph N/A   Clear
1:55 AM 79.7 °F - 72.3 °F 78% 29.90 in 10.0 mi South 15.0 mph 20.7 mph N/A   Clear
2:15 AM 79.2 °F - 72.1 °F 79% 29.90 in 10.0 mi South 17.3 mph 20.7 mph N/A   Clear
2:35 AM 79.2 °F - 72.5 °F 80% 29.89 in 10.0 mi South 16.1 mph 25.3 mph N/A   Clear
2:55 AM 78.8 °F - 72.1 °F 80% 29.89 in 10.0 mi South 17.3 mph 24.2 mph N/A   Clear
3:15 AM 78.3 °F - 72.1 °F 81% 29.88 in 10.0 mi South 17.3 mph 23.0 mph N/A   Clear
3:35 AM 78.3 °F - 72.0 °F 81% 29.87 in 10.0 mi South 18.4 mph - N/A   Clear
3:55 AM 77.9 °F - 71.6 °F 81% 29.85 in 10.0 mi South 19.6 mph - N/A   Clear
4:15 AM 77.7 °F - 71.6 °F 81% 29.85 in 10.0 mi South 18.4 mph 25.3 mph N/A   Clear
4:35 AM 77.5 °F - 71.6 °F 82% 29.85 in 10.0 mi South 19.6 mph - N/A   Clear
4:55 AM 77.2 °F - 71.6 °F 83% 29.86 in 10.0 mi South 18.4 mph 23.0 mph N/A   Clear
5:15 AM 77.0 °F - 71.1 °F 82% 29.87 in 10.0 mi South 17.3 mph - N/A   Clear
5:35 AM 77.0 °F - 70.9 °F 81% 29.87 in 10.0 mi South 12.7 mph - N/A   Clear
5:55 AM 77.0 °F - 70.7 °F 81% 29.87 in 10.0 mi South 12.7 mph 20.7 mph N/A   Clear
6:15 AM 77.0 °F - 70.3 °F 80% 29.87 in 10.0 mi South 13.8 mph 20.7 mph N/A   Clear
6:35 AM 77.0 °F - 70.3 °F 80% 29.87 in 10.0 mi South 13.8 mph 21.9 mph N/A   Clear
6:55 AM 77.4 °F - 70.3 °F 79% 29.88 in 10.0 mi South 15.0 mph 20.7 mph N/A   Clear
7:15 AM 77.9 °F - 70.3 °F 77% 29.87 in 10.0 mi South 17.3 mph 24.2 mph N/A   Clear
7:35 AM 78.8 °F - 70.2 °F 75% 29.87 in 10.0 mi South 18.4 mph 24.2 mph N/A   Clear
7:55 AM 79.7 °F - 70.0 °F 72% 29.87 in 10.0 mi SSW 20.7 mph 25.3 mph N/A   Clear
8:15 AM 80.6 °F 83.8 °F 69.6 °F 69% 29.87 in 10.0 mi South 20.7 mph 24.2 mph N/A   Clear
8:35 AM 80.8 °F 83.9 °F 69.4 °F 68% 29.88 in 10.0 mi SSW 18.4 mph 27.6 mph N/A   Clear
8:55 AM 80.2 °F 83.2 °F 69.1 °F 69% 29.88 in 10.0 mi South 20.7 mph 24.2 mph N/A   Clear
9:15 AM 80.8 °F 83.8 °F 69.1 °F 67% 29.87 in 10.0 mi South 16.1 mph 23.0 mph N/A   Clear
9:35 AM 82.0 °F 85.5 °F 69.4 °F 65% 29.88 in 10.0 mi SSW 15.0 mph 24.2 mph N/A   Clear
9:55 AM 84.0 °F 87.6 °F 68.9 °F 60% 29.89 in 10.0 mi SSW 18.4 mph 26.5 mph N/A   Clear
10:15 AM 85.1 °F 88.5 °F 68.5 °F 57% 29.88 in 10.0 mi SSW 18.4 mph 24.2 mph N/A   Clear
10:35 AM 86.9 °F 90.6 °F 68.4 °F 54% 29.89 in 10.0 mi South 19.6 mph 24.2 mph N/A   Clear
10:55 AM 88.0 °F 91.4 °F 68.0 °F 51% 29.89 in 10.0 mi South 17.3 mph 21.9 mph N/A Thunderstorm Clear
11:15 AM 87.3 °F 90.9 °F 68.0 °F 53% 29.89 in 10.0 mi South 18.4 mph 21.9 mph N/A   Clear
11:35 AM 87.3 °F 90.5 °F 67.6 °F 52% 29.89 in 10.0 mi South 17.3 mph 25.3 mph N/A   Clear
11:55 AM 88.7 °F 92.6 °F 68.5 °F 51% 29.90 in 10.0 mi SSW 20.7 mph - N/A Thunderstorm Clear
12:15 PM 88.9 °F 92.6 °F 67.8 °F 50% 29.90 in 10.0 mi South 20.7 mph 27.6 mph N/A   Clear
12:35 PM 87.6 °F 90.4 °F 67.1 °F 50% 29.89 in 10.0 mi South 23.0 mph 27.6 mph N/A   Clear
12:55 PM 87.1 °F 90.2 °F 67.6 °F 52% 29.89 in 10.0 mi SSW 18.4 mph 27.6 mph N/A   Clear
1:15 PM 90.0 °F 94.1 °F 68.2 °F 49% 29.89 in 10.0 mi South 21.9 mph 28.8 mph N/A   Clear
1:35 PM 89.8 °F 94.2 °F 68.7 °F 50% 29.88 in 10.0 mi South 19.6 mph 24.2 mph N/A   Clear
1:55 PM 91.0 °F 95.2 °F 68.2 °F 47% 29.88 in 10.0 mi South 17.3 mph 21.9 mph N/A   Clear
2:15 PM 92.1 °F 96.7 °F 68.5 °F 46% 29.87 in 10.0 mi SSW 15.0 mph 21.9 mph N/A   Clear
2:35 PM 92.5 °F 97.4 °F 68.9 °F 46% 29.87 in 10.0 mi South 15.0 mph 21.9 mph N/A   Clear
2:55 PM 94.6 °F 100.0 °F 68.9 °F 43% 29.86 in 10.0 mi South 16.1 mph 19.6 mph N/A   Clear
3:15 PM 95.4 °F 99.7 °F 67.6 °F 40% 29.86 in 10.0 mi South 19.6 mph 27.6 mph N/A   Clear
3:35 PM 96.1 °F 101.6 °F 68.7 °F 41% 29.85 in 10.0 mi South 20.7 mph 27.6 mph N/A   Clear
3:55 PM 97.0 °F 101.0 °F 66.7 °F 37% 29.85 in 10.0 mi South 17.3 mph 21.9 mph N/A   Clear
4:15 PM 96.6 °F 100.3 °F 66.2 °F 37% 29.84 in 10.0 mi SSW 23.0 mph 32.2 mph N/A   Clear
4:35 PM 96.8 °F 100.7 °F 66.9 °F 37% 29.85 in 10.0 mi South 16.1 mph 24.2 mph N/A   Clear
4:55 PM 96.1 °F 99.9 °F 66.7 °F 38% 29.84 in 10.0 mi SSW 23.0 mph 28.8 mph N/A   Clear
5:15 PM 95.9 °F 100.7 °F 68.2 °F 40% 29.84 in 10.0 mi South 19.6 mph 24.2 mph N/A   Clear
5:35 PM 95.2 °F 98.8 °F 66.9 °F 39% 29.84 in 10.0 mi South 23.0 mph 29.9 mph N/A   Clear
5:55 PM 94.6 °F 98.3 °F 66.7 °F 40% 29.84 in 10.0 mi SSW 18.4 mph 29.9 mph N/A   Clear
6:15 PM 94.1 °F 97.9 °F 67.1 °F 41% 29.84 in 10.0 mi SSW 23.0 mph 31.1 mph N/A   Clear
6:35 PM 92.8 °F 97.1 °F 68.0 °F 44% 29.83 in 10.0 mi South 21.9 mph 26.5 mph N/A   Clear
6:55 PM 91.8 °F 97.0 °F 69.6 °F 48% 29.83 in 10.0 mi South 21.9 mph 28.8 mph N/A   Clear
7:15 PM 91.2 °F 96.0 °F 68.9 °F 48% 29.84 in 7.0 mi South 24.2 mph 28.8 mph N/A   Clear
7:35 PM 90.3 °F 94.7 °F 69.1 °F 49% 29.84 in 5.0 mi South 17.3 mph 20.7 mph N/A   Haze
7:55 PM 88.9 °F 93.8 °F 69.8 °F 53% 29.84 in 7.0 mi South 17.3 mph 24.2 mph N/A   Clear
8:15 PM 88.0 °F 93.4 °F 70.5 °F 56% 29.84 in 10.0 mi South 18.4 mph 23.0 mph N/A   Clear
8:35 PM 87.3 °F 92.4 °F 70.3 °F 57% 29.84 in 10.0 mi South 17.3 mph 24.2 mph N/A   Clear
8:55 PM 86.2 °F 91.1 °F 70.2 °F 59% 29.85 in 10.0 mi South 15.0 mph - N/A   Clear
9:15 PM 85.8 °F 90.4 °F 69.8 °F 59% 29.85 in 10.0 mi South 19.6 mph - N/A   Clear
9:35 PM 85.1 °F 89.8 °F 70.2 °F 61% 29.86 in 10.0 mi South 15.0 mph - N/A   Clear
9:55 PM 84.6 °F 89.1 °F 70.3 °F 62% 29.87 in 10.0 mi South 17.3 mph 21.9 mph N/A   Clear
10:15 PM 84.6 °F 88.8 °F 70.0 °F 61% 29.87 in 10.0 mi South 17.3 mph 24.2 mph N/A   Clear
10:35 PM 84.2 °F 88.1 °F 69.4 °F 61% 29.88 in 10.0 mi South 17.3 mph 23.0 mph N/A   Clear
10:55 PM 84.2 °F 87.9 °F 69.1 °F 60% 29.88 in 10.0 mi SSW 20.7 mph - N/A   Clear
11:15 PM 83.7 °F 87.0 °F 68.4 °F 60% 29.87 in 10.0 mi SSW 17.3 mph 25.3 mph N/A   Clear
11:35 PM 83.5 °F 86.4 °F 68.0 °F 59% 29.86 in 10.0 mi SSW 18.4 mph 26.5 mph N/A   Clear
11:55 PM 82.9 °F 85.8 °F 68.0 °F 60% 29.87 in 10.0 mi SSW 19.6 mph 25.3 mph N/A   Clear